Theta_e
325 320 322 314 303 299 293 297 303 304 306 310 309 305 304 306 303 299 319 327 330 336 340 339 341 342 339 337 336 337 336 336 335 336 335 335 335 334 337 336 336 337 336 334 333 333 334 333 333
323 322 315 308 298 291 291 298 301 304 308 311 312 314 311 309 317 316 320 328 332 339 339 337 340 340 339 336 335 337 335 336 336 335 336 335 337 335 336 336 337 335 334 334 334 334 334 334 334
315 323 309 303 298 292 291 297 301 306 313 307 308 315 315 312 316 318 322 330 334 338 338 337 339 341 340 337 337 335 334 336 336 335 337 336 335 336 336 335 334 334 333 334 334 335 335 335 335
316 313 307 299 297 301 296 300 304 304 307 313 313 312 315 321 320 321 329 332 334 338 338 337 340 342 341 339 337 337 339 335 338 336 335 334 338 339 336 334 332 333 335 335 334 334 336 335 336
314 308 300 297 298 303 304 304 304 303 303 306 313 311 313 320 323 327 330 332 332 337 337 337 340 341 341 340 339 335 336 335 337 339 336 335 338 336 334 334 334 336 337 336 334 335 335 334 333
308 304 295 294 297 303 304 307 304 302 303 304 309 310 313 321 324 327 332 331 334 336 337 338 336 338 339 339 339 337 334 336 334 340 338 338 336 333 336 337 337 337 337 337 335 335 333 332 333
303 299 295 296 298 300 304 308 301 302 304 304 311 309 314 319 323 329 331 332 333 336 336 338 337 335 334 335 335 336 336 334 337 337 338 335 330 331 338 337 338 337 336 336 335 332 332 333 332
306 301 295 298 298 299 305 305 305 304 305 313 316 309 312 319 324 328 330 333 332 332 336 337 337 335 334 334 331 332 334 333 333 334 333 330 329 332 333 331 336 337 336 336 331 331 332 332 330
307 298 295 296 297 300 303 300 307 308 307 309 316 315 319 322 323 325 326 328 330 332 334 335 336 336 335 334 330 329 330 330 329 330 327 325 328 330 328 328 333 336 336 335 330 330 330 327 324
297 296 296 301 297 293 295 296 298 303 303 304 307 315 322 319 321 322 323 323 326 329 331 334 334 336 336 336 332 333 331 329 327 326 327 326 324 325 326 324 328 332 331 333 330 329 323 317 313
291 291 291 293 294 292 293 293 297 296 297 305 305 306 313 319 315 320 323 324 325 327 329 332 333 335 336 335 333 333 332 329 325 323 324 324 324 322 322 323 325 325 322 319 322 316 313 312 310
285 291 290 292 293 291 290 293 292 295 296 303 304 306 309 318 318 314 320 323 323 325 328 331 332 333 333 336 333 333 331 329 324 324 324 324 322 321 320 321 321 323 318 310 311 311 310 309 307
286 289 290 291 291 290 291 288 289 290 295 298 300 304 306 316 319 321 318 320 323 324 327 329 330 330 331 333 334 333 331 328 325 324 326 324 322 320 319 318 319 322 312 310 308 308 308 306 305
288 289 288 289 289 289 288 288 288 290 292 293 294 294 296 303 317 320 319 318 323 325 326 328 328 330 329 330 333 332 331 329 326 324 325 324 323 318 317 317 319 322 310 309 307 306 305 304 303
290 285 285 285 286 286 289 282 285 288 291 292 292 292 293 295 300 317 321 321 321 326 327 327 328 329 328 328 330 332 331 329 327 325 325 323 322 319 318 317 318 321 312 306 303 303 304 302 300
282 280 277 282 286 287 286 278 286 291 290 290 291 290 291 294 296 299 316 322 320 324 327 328 330 330 328 328 328 330 330 329 327 326 325 323 322 320 319 317 318 313 311 306 303 303 301 301 298
280 276 277 280 286 285 284 281 287 291 290 289 291 291 292 291 293 296 300 314 321 322 326 327 330 330 329 329 328 327 329 327 327 327 326 323 321 320 319 319 315 312 309 305 302 302 302 298 295
277 277 279 279 283 285 283 283 287 290 290 289 290 291 291 291 292 295 297 301 321 321 323 327 329 330 330 330 329 329 328 328 327 325 323 322 321 320 319 318 313 311 308 303 300 299 300 298 295
281 279 279 282 285 282 282 283 285 288 288 287 287 288 288 289 294 294 295 298 303 320 321 322 326 330 329 328 326 326 323 324 323 322 321 320 321 320 318 316 310 309 307 302 299 298 297 295 294
281 280 279 282 284 284 282 281 285 287 285 285 286 289 291 293 294 296 296 295 297 304 320 321 323 328 329 329 327 326 324 322 321 321 320 319 320 320 317 313 309 307 306 300 298 298 295 295 295
281 280 280 280 282 283 281 279 281 284 284 288 291 292 293 292 292 293 295 296 297 298 304 321 321 325 329 329 328 314 309 308 307 309 309 312 316 315 314 310 305 305 305 299 298 297 296 293 293
279 282 281 280 278 270 281 272 279 282 284 288 290 292 292 291 292 293 293 294 295 297 300 303 321 322 327 329 323 316 317 312 314 311 304 302 305 306 306 305 305 304 303 299 298 297 296 295 291
280 283 281 280 278 279 277 275 277 282 281 288 290 290 292 292 291 291 292 294 295 296 296 299 315 320 324 328 321 318 319 317 306 301 299 297 297 298 300 301 301 301 300 298 296 295 295 294 293
283 281 280 279 278 267 276 277 276 280 285 287 288 289 289 290 290 291 292 294 294 294 295 296 303 318 320 325 320 317 319 303 300 300 298 297 296 295 296 297 297 298 295 294 294 293 292 292 292
281 275 264 265 263 265 278 276 279 283 286 285 285 287 289 289 289 289 289 290 292 292 293 295 300 307 320 321 318 317 317 305 304 302 300 295 293 293 292 294 292 292 292 292 292 291 291 291 291
279 274 265 262 263 270 279 274 279 289 288 289 289 289 289 289 289 288 289 290 290 291 292 293 296 300 317 319 316 316 308 306 305 304 300 299 296 293 292 291 291 291 290 291 291 290 289 289 288
275 270 280 275 271 272 275 279 284 287 287 289 288 288 287 287 287 287 288 288 289 290 291 292 294 298 301 316 315 314 308 306 302 299 298 295 292 291 291 290 290 290 290 290 289 288 286 285 285
278 282 271 270 265 265 271 275 277 281 284 287 287 287 286 287 285 285 286 288 290 291 292 292 294 296 300 314 314 308 306 303 299 295 291 290 290 289 289 289 288 288 288 287 286 285 285 283 282
272 270 276 277 275 270 269 273 283 284 286 285 286 286 285 283 283 284 285 288 289 291 293 292 293 295 299 312 304 299 295 294 292 290 289 288 288 288 287 287 287 286 285 285 285 284 282 281 280
278 275 279 272 271 274 274 273 286 288 288 286 285 285 283 283 283 283 286 287 289 291 292 294 297 294 300 299 295 292 291 289 287 286 286 286 285 285 285 286 286 285 285 284 283 281 281 279 279
Wind_Speed
8 7 1 5 3 4 4 7 3 6 5 2 2 5 6 3 5 5 3 7 10 16 15 15 18 18 18 18 17 16 17 18 17 17 16 16 15 14 14 12 10 12 14 13 13 13 13 12 10
8 4 4 3 3 0 5 5 7 7 4 2 3 3 2 3 2 1 5 5 14 16 16 15 18 18 18 19 18 16 17 16 16 18 16 17 14 14 14 13 11 12 13 13 13 13 12 10 8
5 1 1 4 3 5 5 5 5 6 5 3 2 2 4 2 1 6 4 12 15 15 15 15 20 19 19 19 19 18 18 17 17 16 17 16 17 17 16 13 12 13 13 13 13 12 10 8 5
3 3 3 2 5 5 4 6 4 9 7 1 4 2 1 1 3 6 9 12 14 14 14 17 22 21 21 19 18 17 16 18 16 16 16 17 14 17 16 12 13 13 13 12 12 11 9 7 9
1 1 1 2 6 4 4 6 4 8 6 5 3 5 3 1 3 8 10 11 13 13 11 14 22 23 22 22 19 19 18 18 17 17 16 13 14 15 15 15 15 14 14 13 11 10 9 8 9
1 2 1 4 6 6 3 7 3 4 4 8 3 2 5 1 6 7 11 9 9 14 10 12 18 20 23 22 21 19 19 17 17 15 16 16 13 14 15 15 15 13 14 12 11 10 9 9 12
4 4 4 3 6 7 4 3 3 3 4 6 2 4 4 3 6 9 9 9 8 10 10 10 12 13 18 21 21 19 19 19 15 15 14 14 15 16 13 13 11 13 12 11 12 10 10 12 13
3 4 3 5 9 10 4 4 4 3 6 4 3 4 5 2 8 7 8 10 9 7 11 14 12 11 11 12 17 16 16 16 16 14 13 12 11 11 11 10 9 12 12 12 12 12 13 14 13
2 1 4 4 3 5 8 9 4 4 4 5 4 2 7 4 8 8 7 9 11 9 13 15 14 11 9 8 10 13 14 14 15 12 14 12 6 6 7 6 7 10 10 13 13 13 16 15 14
3 3 5 2 4 5 8 3 9 6 7 4 7 2 5 3 6 11 16 16 15 16 15 15 14 14 12 9 9 10 10 8 7 7 10 8 6 5 5 6 6 9 10 11 15 16 14 9 4
5 3 5 4 6 8 6 7 5 6 7 7 7 10 7 4 7 10 11 15 17 15 13 14 14 13 13 9 7 6 5 5 4 7 7 7 6 4 4 3 3 3 6 4 8 7 4 6 5
4 4 3 7 7 8 10 7 6 10 10 12 12 8 6 8 10 12 14 14 14 18 19 16 15 14 13 8 8 8 7 7 5 5 8 7 5 6 5 4 5 5 4 5 5 4 6 7 8
2 5 8 9 9 8 9 6 7 12 16 16 14 11 10 8 11 12 8 8 8 13 16 17 15 15 14 12 9 8 8 7 7 6 8 7 6 6 5 4 4 4 5 5 5 6 6 7 8
4 5 10 6 8 7 6 8 3 8 10 11 10 9 10 9 9 8 6 9 11 12 16 17 17 15 14 13 12 9 9 10 8 7 9 10 7 5 5 4 5 5 4 4 6 7 7 7 7
4 7 8 1 6 7 10 6 3 3 8 15 18 12 9 11 10 9 11 12 11 12 10 14 15 14 15 16 12 9 9 10 9 9 10 10 10 9 7 6 5 5 7 9 8 8 8 8 7
5 4 7 7 9 5 4 8 10 17 16 24 19 11 9 12 12 10 8 10 8 10 14 13 14 17 16 15 12 10 8 10 9 9 9 12 10 10 8 6 5 6 7 7 8 7 7 7 7
7 5 5 9 7 5 5 15 10 17 20 21 20 18 12 11 13 13 12 9 11 13 14 16 17 18 19 17 13 13 12 9 9 9 9 12 12 10 10 7 6 9 8 7 8 7 7 9 8
8 5 5 12 8 10 12 23 15 20 19 19 20 16 14 11 14 14 14 10 9 11 15 17 15 17 17 12 11 10 10 10 10 10 10 14 11 11 10 7 9 9 9 9 8 10 7 8 10
6 5 13 12 13 5 15 23 22 25 16 12 10 9 8 9 12 12 12 11 7 9 13 16 16 18 13 10 10 11 11 10 9 9 13 15 13 13 10 7 9 9 10 12 12 10 13 8 11
5 7 11 11 6 15 15 24 28 17 7 2 4 6 6 9 12 11 12 10 8 10 12 15 18 19 16 12 11 8 10 7 7 7 10 13 13 14 11 11 10 11 9 11 13 14 8 6 6
4 7 6 13 16 16 5 9 12 7 2 2 3 3 4 6 11 11 13 11 9 9 12 13 16 19 19 19 11 4 6 4 3 3 4 5 11 12 12 12 11 10 10 10 13 13 11 8 1
9 1 9 17 12 5 6 8 9 6 6 3 6 7 7 8 10 9 10 12 11 12 10 14 16 19 19 19 14 16 14 10 8 7 4 5 7 9 10 11 11 10 8 10 8 8 6 10 9
10 10 16 14 9 7 1 4 11 8 3 5 9 11 12 8 10 14 12 11 12 11 10 11 15 16 19 18 16 15 17 9 6 7 9 10 6 7 10 9 12 11 8 8 10 10 9 6 6
9 9 9 1 2 3 3 1 10 6 3 3 8 11 13 12 14 12 9 12 11 10 10 11 14 15 16 17 18 19 17 12 11 10 9 7 6 9 9 11 9 10 11 12 10 11 13 11 9
9 6 6 9 6 6 1 6 13 0 3 3 10 12 14 13 13 15 15 12 14 13 12 11 12 13 15 18 16 17 15 16 17 17 12 14 8 8 10 12 12 10 11 12 12 11 11 11 10
5 2 5 5 5 13 14 9 6 5 3 9 11 13 17 17 14 14 16 15 14 13 12 11 12 11 12 16 16 15 13 10 10 13 11 10 9 10 11 13 14 17 15 14 12 11 8 11 9
6 2 4 6 5 6 5 7 4 2 14 24 23 20 20 19 15 20 18 16 14 13 12 12 12 12 13 14 14 12 13 13 12 13 11 9 12 12 14 14 16 18 15 16 14 10 10 12 8
4 4 5 3 6 7 6 7 8 7 20 22 17 20 21 17 20 18 17 17 15 15 13 11 10 12 11 12 13 10 9 9 11 13 13 13 14 15 15 17 16 17 15 15 15 10 10 13 8
5 5 3 3 3 5 8 6 4 8 21 20 22 19 18 22 20 18 17 17 18 16 15 11 10 9 9 9 12 14 13 14 13 13 13 13 12 16 15 17 16 16 16 13 13 12 12 13 11
3 5 1 2 5 5 6 9 3 11 21 25 22 15 19 20 19 17 17 16 14 11 11 11 11 6 6 12 15 15 16 16 15 16 17 15 15 12 13 13 17 16 15 14 14 13 10 12 12
Wind_Direction
339 324 61 48 44 63 274 256 271 292 322 255 86 145 193 151 172 212 316 176 142 149 150 151 158 154 152 152 153 152 148 148 153 146 141 142 145 144 129 135 142 126 125 117 116 116 114 111 107
327 356 34 97 104 287 269 259 246 243 252 129 193 142 86 274 151 91 115 202 154 153 152 153 153 155 159 158 156 165 158 152 150 152 158 141 146 144 144 148 142 140 127 126 121 117 114 113 116
319 17 89 135 166 194 241 235 259 291 277 246 211 4 151 245 184 184 234 151 153 157 156 154 152 161 155 161 163 164 162 159 157 158 147 147 156 157 150 141 150 134 138 133 123 118 114 116 91
346 4 42 132 226 239 224 289 293 343 340 322 316 277 288 167 170 182 139 147 154 157 161 158 156 159 155 157 172 162 166 162 160 165 159 158 161 142 133 145 146 146 135 130 125 121 110 85 74
356 25 189 212 240 244 224 266 290 309 288 297 12 297 260 97 90 128 138 151 158 160 164 166 161 163 158 161 173 167 170 169 163 161 155 164 148 141 143 155 157 151 142 129 129 119 104 95 85
96 134 82 251 255 261 285 285 270 258 268 298 213 179 258 106 141 155 146 152 160 164 162 173 167 165 159 166 171 169 173 170 173 160 166 159 145 159 164 155 156 151 131 130 129 115 109 100 105
114 96 227 244 258 269 248 212 237 275 295 292 274 207 278 220 183 148 149 139 153 166 158 168 174 172 163 169 171 173 175 174 175 165 164 152 167 169 158 154 154 142 133 130 115 114 119 111 109
119 124 212 223 245 275 250 332 4 6 278 324 189 246 269 328 143 125 136 150 148 162 175 171 175 177 179 178 169 172 174 173 176 170 161 148 170 174 157 150 159 145 142 128 115 123 122 113 103
106 75 240 252 210 260 18 7 313 292 250 347 312 296 291 102 128 130 151 165 171 176 182 184 177 181 175 172 176 168 171 167 171 166 156 153 166 153 145 137 171 137 141 129 117 125 114 105 93
88 195 233 39 13 343 324 330 329 311 318 302 306 257 15 122 176 176 180 188 191 187 187 188 181 181 181 174 173 183 177 176 172 166 166 152 149 144 142 150 164 138 122 120 122 121 113 92 77
340 226 339 310 342 353 304 305 325 298 288 240 304 315 346 201 219 219 213 197 195 192 188 188 187 180 181 181 173 179 183 174 169 158 154 154 151 153 148 145 135 115 112 92 115 114 89 88 82
359 3 26 304 325 325 303 294 282 257 254 279 288 276 277 228 222 225 223 209 191 194 195 186 187 183 182 175 177 178 176 174 166 179 156 163 164 163 162 163 153 142 130 118 111 104 101 87 80
49 321 315 305 302 289 279 265 270 279 276 284 297 298 292 263 245 231 228 230 191 205 200 192 183 188 185 187 179 176 175 175 168 168 176 167 175 174 160 151 141 144 127 125 115 109 101 93 84
304 286 289 298 314 302 321 293 261 312 4 345 335 323 315 307 264 256 221 231 209 210 206 195 191 188 189 190 185 182 174 175 172 169 177 177 170 161 160 155 157 151 129 121 118 119 110 95 93
308 325 328 23 324 300 343 326 209 298 316 319 308 292 285 292 300 257 236 229 210 213 206 209 196 189 192 195 186 187 180 178 178 177 176 174 171 165 162 160 162 150 129 114 104 102 102 100 93
20 50 359 325 321 299 27 292 340 318 318 302 295 285 262 269 272 275 268 232 206 197 197 197 200 193 194 193 194 190 187 179 180 182 179 180 180 171 162 162 161 133 134 127 122 125 110 103 97
19 302 301 311 293 271 39 294 278 297 284 289 290 289 285 273 274 270 264 233 218 201 198 196 203 202 195 194 193 195 195 187 181 182 182 179 173 178 166 173 145 144 136 132 131 123 124 120 106
304 310 284 291 276 307 293 275 295 291 291 285 284 284 286 280 271 272 273 268 232 214 206 203 199 205 202 197 194 194 195 197 192 186 180 176 174 176 165 162 151 145 139 133 132 121 116 122 120
260 260 282 280 288 298 282 297 295 282 298 291 295 306 310 315 314 292 276 278 269 231 215 210 201 203 192 189 187 187 192 191 186 190 179 178 172 163 164 156 154 153 155 152 145 128 130 122 128
279 285 293 293 321 312 302 299 281 290 262 273 335 4 346 343 347 348 343 332 319 286 231 215 210 204 197 196 195 187 184 191 183 181 177 174 173 171 168 157 159 159 146 142 148 148 142 125 175
295 266 295 293 318 293 311 285 295 318 277 172 48 302 319 339 340 336 337 330 325 326 312 236 212 210 204 198 189 115 97 83 105 157 141 171 162 162 162 161 151 154 156 160 159 158 147 151 146
312 341 302 291 332 289 47 285 303 303 302 46 343 347 329 327 336 328 328 322 322 314 313 311 238 212 212 200 179 179 187 180 189 172 140 133 128 130 137 142 145 149 146 146 147 146 127 148 148
263 320 285 294 285 287 304 259 278 287 323 16 351 338 340 318 323 325 315 308 309 311 310 299 277 220 209 204 186 194 198 182 126 130 134 111 81 113 116 132 133 130 127 121 132 125 118 120 124
294 300 298 295 269 8 238 184 286 296 21 331 333 335 334 327 323 314 299 303 304 307 310 315 316 232 209 206 186 194 203 152 144 148 146 145 144 130 125 120 118 127 124 125 129 123 127 130 120
358 354 340 357 3 232 188 287 248 338 80 322 318 323 331 324 318 319 317 315 309 307 308 309 304 302 210 204 191 191 184 169 168 163 159 151 150 135 138 127 123 113 115 115 121 115 119 127 125
320 107 131 291 298 292 280 234 266 123 245 333 325 318 334 329 323 315 309 306 301 300 300 303 298 295 248 200 187 192 163 168 166 169 160 156 154 136 140 124 125 122 125 117 112 109 107 101 105
293 352 220 269 265 272 262 292 279 333 342 344 340 334 326 321 325 316 310 301 298 296 292 289 291 293 299 181 186 187 166 159 157 146 144 138 133 131 127 129 124 116 120 118 114 108 115 107 101
161 297 354 337 313 292 275 282 261 341 342 332 326 323 320 327 317 312 306 306 300 294 289 276 267 274 279 210 177 146 147 136 133 132 132 135 127 124 125 125 122 115 113 110 113 118 118 105 105
340 352 342 267 240 291 307 277 218 340 338 329 328 324 331 322 318 314 307 303 301 294 288 276 265 258 269 204 121 113 110 111 109 107 104 101 106 115 117 119 113 116 115 110 109 111 116 115 114
246 203 127 256 311 275 264 268 275 327 337 332 325 333 325 322 317 314 308 310 300 298 299 284 276 213 267 125 111 109 110 109 111 113 110 110 112 101 106 104 109 111 107 112 119 119 124 117 110